This is the latest recevied weather packets stored in our database for station/object KD7CIH. If no packets are shown the sender has not sent any weather packets the latest 10 day(s).
| Time | Temp. | Humidity | Pressure | Rain* | Wind** | Luminosity | Snow |
|---|---|---|---|---|---|---|---|
| 1787843914 | 17.78° C | 44% | 1021.9 hPa | 0 mm | - | - | - |
| 1787843615 | 17.78° C | 45% | 1021.9 hPa | 0 mm | - | - | - |
| 1787843313 | 17.22° C | 45% | 1021.8 hPa | 0 mm | - | - | - |
| 1787842713 | 16.67° C | 46% | 1021.8 hPa | 0 mm | - | - | - |
| 1787842542 | 16.67° C | 47% | 1021.8 hPa | 0 mm | - | - | - |
| 1787842114 | 16.11° C | 47% | 1021.9 hPa | 0 mm | - | - | - |
| 1787841813 | 16.11° C | 48% | 1021.8 hPa | 0 mm | - | - | - |
| 1787841513 | 15.56° C | 49% | 1021.9 hPa | 0 mm | - | - | - |
| 1787841215 | 15.56° C | 50% | 1021.9 hPa | 0 mm | - | - | - |
| 1787840913 | 15° C | 51% | 1022.1 hPa | 0 mm | - | - | - |
| 1787840613 | 14.44° C | 52% | 1022.1 hPa | 0 mm | - | - | - |
| 1787840314 | 14.44° C | 53% | 1021.9 hPa | 0 mm | - | - | - |
| 1787840142 | 13.89° C | 54% | 1021.9 hPa | 0 mm | - | - | - |
| 1787839714 | 13.89° C | 55% | 1022.1 hPa | 0 mm | - | - | - |
| 1787839413 | 13.33° C | 56% | 1021.9 hPa | 0 mm | - | - | - |
| 1787839115 | 13.33° C | 57% | 1021.8 hPa | 0 mm | - | - | - |
| 1787838815 | 12.78° C | 57% | 1021.9 hPa | 0 mm | - | - | - |
| 1787838641 | 12.78° C | 57% | 1021.9 hPa | 0 mm | - | - | - |
| 1787838214 | 12.78° C | 57% | 1021.9 hPa | 0 mm | - | - | - |
| 1787837915 | 12.22° C | 57% | 1022.1 hPa | 0 mm | - | - | - |
| 1787837614 | 12.22° C | 58% | 1021.9 hPa | 0 mm | - | - | - |
| 1787837313 | 12.22° C | 58% | 1021.9 hPa | 0 mm | - | - | - |
| 1787837013 | 11.67° C | 60% | 1021.9 hPa | 0 mm | - | - | - |
| 1787836843 | 11.11° C | 61% | 1021.8 hPa | 0 mm | - | - | - |
| 1787836414 | 11.11° C | 61% | 1021.7 hPa | 0 mm | - | - | - |
* Rain latest hour (hover to see other rain measurements)
** Current wind speed in m/s (hover to see current wind gust speed)